Location: Unspecified
(0.0000°N, 0.0000°E)
Time: 12:12:16
(UTC+00:00)

Explorer 11/Cluster Stage 4 - Pass Details

Date: 23 November 2019
Orbit: 467 x 1259 km, 28.8° (Epoch: 10 December)

Event Time Altitude Azimuth Distance (km) Brightness Sun altitude
Rises 13:38:28 0° 238° (WSW) 2,625 9.8 55.9°
Reaches altitude 10° 13:40:46 10° 237° (WSW) 1,675 9.1 55.4°
Maximum altitude 13:44:31 80° 149° (SSE) 475 6.6 54.7°
Drops below altitude 10° 13:48:06 10° 62° (ENE) 1,609 8.0 53.9°
Sets 13:50:17 0° 61° (ENE) 2,509 8.8 53.5°
